Grand Junction, CO

7:34 PM MDT on September 22, 2019 (GMT -0600)
Walker

Weather History for KGJT - May, 2019

Change the Weather History Date:

Wednesday, May 22, 2019

  Actual Average Record
Temperature  
Mean Temperature 52 °F 64 °F  
Max Temperature 61 °F 78 °F 94 °F (2005)
Min Temperature 43 °F 49 °F 34 °F (2002)
Degree Days  
Heating Degree Days 13 3  
Month to date heating degree days 194 131  
Since 1 July heating degree days 5591 5565  
Cooling Degree Days 0 2  
Month to date cooling degree days 11 24  
Year to date cooling degree days 12 27  
Growing Degree Days 2 (Base 50)    
Moisture  
Dew Point 40 °F    
Average Humidity 65    
Maximum Humidity 89    
Minimum Humidity 40    
Precipitation  
Precipitation 0.07 in 0.03 in 0.52 in (1955)
Month to date precipitation 0.29 0.66  
Year to date precipitation 5.34 3.61  
Snow  
Snow 0.00 in 0.00 in 0.10 in (2015)
Month to date snowfall 0.0 0.1  
Since 1 July snowfall 17.4 19.1  
Snow Depth 0.00 in    
Sea Level Pressure  
Sea Level Pressure 29.61 in    
Wind  
Wind Speed 6 mph (SSE)    
Max Wind Speed 28 mph    
Max Gust Speed 35 mph    
Visibility 10 miles    
Events Rain , Thunderstorm    
T = Trace of Precipitation, MM = Missing Value Source: NWS Daily Summary

Daily Weather History Graph

Daily Weather History Graph

Search for Another Location

Airport or City:

Astronomy

May. 22, 2019 Rise Set
Actual Time 5:55 AM MDT 8:26 PM MDT
Civil Twilight 5:24 AM MDT 8:57 PM MDT
Nautical Twilight 4:46 AM MDT 9:35 PM MDT
Astronomical Twilight 4:04 AM MDT 10:18 PM MDT
Moon No Moon Rise 9:06 AM MDT (5/22)
Length of Visible Light 15h 32m
Length of Day
14h 30m
Waning Gibbous, 84% of the Moon is Illuminated
May 22
Waning Gibbous
May 26
Last Quarter
Jun 3
New
Jun 10
First Quarter
Jun 17
Full

Hourly Weather History & Observations

Time (MDT) Temp. Windchill Dew Point Humidity Pressure Visibility Wind Dir Wind Speed Gust Speed Precip Events Conditions
12:53 AM 46.9 °F - 37.9 °F 71% 29.50 in 10.0 mi SSE 10.4 mph - N/A   Overcast
1:53 AM 46.0 °F 41.9 °F 37.9 °F 73% 29.50 in 10.0 mi ESE 8.1 mph - N/A   Overcast
2:53 AM 46.9 °F - 36.0 °F 66% 29.49 in 10.0 mi SE 12.7 mph 17.3 mph N/A   Overcast
3:53 AM 46.0 °F 41.9 °F 37.0 °F 71% 29.50 in 10.0 mi SSE 8.1 mph - N/A   Overcast
4:53 AM 45.0 °F 43.5 °F 41.0 °F 86% 29.52 in 10.0 mi South 3.5 mph - 0.00 in Rain Light Rain
5:53 AM 43.0 °F 38.8 °F 39.9 °F 89% 29.55 in 10.0 mi East 6.9 mph - 0.00 in Rain Light Rain
6:53 AM 44.1 °F 42.5 °F 39.9 °F 85% 29.58 in 10.0 mi SW 3.5 mph - 0.00 in   Overcast
7:53 AM 46.0 °F - 41.0 °F 83% 29.60 in 10.0 mi Calm Calm - N/A   Overcast
8:53 AM 48.9 °F - 39.9 °F 71% 29.60 in 10.0 mi Variable 3.5 mph - N/A   Overcast
9:53 AM 52.0 °F - 37.9 °F 59% 29.60 in 10.0 mi ESE 5.8 mph - N/A   Scattered Clouds
10:53 AM 55.9 °F - 35.1 °F 45% 29.60 in 10.0 mi SSE 10.4 mph 16.1 mph N/A   Mostly Cloudy
11:53 AM 57.2 °F - 33.8 °F 41% 29.60 in 10.0 mi SSE 15.0 mph 21.9 mph N/A   Overcast
12:44 PM 55.0 °F - 35.1 °F 47% 29.70 in 10.0 mi SE 13.8 mph 28.8 mph N/A Thunderstorm Mostly Cloudy
12:53 PM 55.0 °F - 35.1 °F 47% 29.61 in 10.0 mi SSE 12.7 mph 24.2 mph N/A   Mostly Cloudy
1:53 PM 57.0 °F - 35.1 °F 44% 29.60 in 10.0 mi Variable 4.6 mph - N/A   Partly Cloudy
2:53 PM 57.9 °F - 39.9 °F 51% 29.60 in 10.0 mi South 4.6 mph - 0.00 in Rain Light Rain
3:53 PM 54.0 °F - 43.0 °F 66% 29.63 in 10.0 mi WSW 4.6 mph - 0.06 in   Mostly Cloudy
4:53 PM 54.0 °F - 43.0 °F 66% 29.64 in 8.0 mi NW 10.4 mph - 0.01 in Rain Light Rain
5:53 PM 54.0 °F - 43.0 °F 66% 29.66 in 10.0 mi NNW 12.7 mph - 0.00 in   Mostly Cloudy
6:53 PM 55.9 °F - 39.0 °F 53% 29.66 in 10.0 mi Calm Calm - 0.00 in   Clear
7:53 PM 52.0 °F - 42.1 °F 69% 29.68 in 10.0 mi WSW 6.9 mph - N/A   Mostly Cloudy
8:53 PM 50.0 °F - 43.0 °F 77% 29.70 in 10.0 mi North 4.6 mph - N/A   Mostly Cloudy
9:53 PM 50.0 °F - 42.1 °F 74% 29.71 in 10.0 mi West 4.6 mph - N/A   Scattered Clouds
10:53 PM 50.0 °F - 43.0 °F 77% 29.71 in 10.0 mi NE 3.5 mph - N/A   Mostly Cloudy
11:53 PM 50.0 °F - 44.1 °F 80% 29.71 in 10.0 mi South 4.6 mph - 0.00 in Rain Light Rain